Regional Weather Roundup
Issued by NWS

Home | Current Version | Previous Version | Text Only | Print | Product List | Glossary On
Versions: 1 2 3 4 5 6 7 8 9 10 11 12 13 14 15 16 17 18 19 20 21 22 23 24 25 26 27 28
000
ASUS45 KBOI 170310
RWRID

IDAHO REGIONAL WEATHER ROUNDUP
NATIONAL WEATHER SERVICE BOISE ID
800 PM MST SAT DEC 16 2017

NOTE: "FAIR" INDICATES FEW OR NO CLOUDS BELOW 12000 FEET
WITH NO SIGNIFICANT WEATHER AND/OR OBSTRUCTIONS TO VISIBILITY

IDZ012-014-170400-
SOUTHWEST IDAHO


CITY           SKY/WX    TMP DP  RH WIND       PRES   REMARKS
BOISE          CLEAR     30  24  78 NW13      30.15R WCI  20
CALDWELL       CLEAR     30  25  81 W13       30.20R WCI  20
MOUNTAIN HOME  CLEAR     31  31  99 NW20      30.12R WCI  18
$$

IDZ016-017-170400-
SOUTHCENTRAL IDAHO


CITY           SKY/WX    TMP DP  RH WIND       PRES   REMARKS
BURLEY         CLOUDY    31  24  75 W10G18    30.09R WCI  22
JEROME         CLOUDY    29  25  85 SW9       30.10R WCI  20
TWIN FALLS     CLOUDY    28  24  85 SW10      30.11R WCI  19
$$

IDZ019>023-170400-
SOUTHEAST IDAHO


CITY           SKY/WX    TMP DP  RH WIND       PRES   REMARKS
IDAHO FALLS    CLOUDY    22  21  96 S9        30.06R WCI  12
POCATELLO      CLOUDY    28  25  88 W12       30.08R WCI  18
REXBURG        CLOUDY    23  22  96 CALM      30.05R
$$

IDZ006-010-011-018-031-032-170400-
CENTRAL IDAHO MOUNTAINS


CITY           SKY/WX    TMP DP  RH WIND       PRES   REMARKS
MCCALL         PTCLDY    21  12  68 NE7       30.11R WCI  12
HAILEY         CLOUDY    23  21  93 NW6       30.06R WCI  16
STANLEY          N/A     19   9  65 CALM      30.05R
SALMON         CLEAR     19  14  81 CALM      30.14R
CHALLIS        PTCLDY    20  11  68 W6        30.08R WCI  12
$$

IDZ002-004-006-007-026-170400-
NORTHERN IDAHO


CITY           SKY/WX    TMP DP  RH WIND       PRES   REMARKS
LEWISTON       CLOUDY    28  27  96 SE6       30.31S WCI  22
LOWELL           N/A     29  29 100 CALM      30.34R
COEUR D`ALENE  MOCLDY    23  20  88 S5        30.23F WCI  17
MULLAN PASS    CLOUDY    17  12  80 CALM      30.05R
$$




USA.gov is the U.S. government's official web portal to all federal, state and local government web resources and services.